Wind_Speed
44 42 40 40 39 34 28 23 26 27 34 40 36 29 26 24 11 12 11 14 10 9 9 9 5 4 8 10 11 12 14 15 15 13 13 13 15 15 15 14 15 16 15 14 14 16 17 19 20
47 44 43 43 43 34 27 28 29 36 39 43 39 36 32 30 14 12 19 23 25 19 14 13 14 9 8 10 12 13 14 14 15 15 15 16 17 17 17 16 16 15 15 16 16 17 18 20 22
42 41 45 47 43 33 29 31 37 41 39 44 43 38 34 24 13 17 23 26 29 27 22 17 17 12 11 9 12 13 13 13 15 17 20 20 19 18 17 18 18 17 17 17 17 17 19 21 23
60 40 42 49 41 33 33 36 41 41 43 42 44 41 35 23 15 20 27 30 33 28 24 23 19 16 12 12 11 13 14 15 15 16 19 19 18 18 17 18 18 18 19 18 18 18 18 20 23
43 55 43 44 39 36 35 38 43 42 43 43 45 43 36 20 20 24 30 33 36 36 29 23 21 20 17 15 12 14 14 14 14 16 19 20 21 19 19 19 19 19 19 20 21 21 20 22 24
38 41 55 40 32 37 39 40 43 45 47 45 42 41 32 24 24 29 33 32 33 34 26 23 24 22 20 15 12 12 14 14 13 15 18 20 22 23 20 19 19 20 21 23 23 22 23 24 25
41 43 40 49 30 40 39 41 45 47 47 47 46 42 33 30 27 33 31 31 27 29 28 25 23 22 23 18 14 12 12 13 15 15 17 20 22 24 22 20 22 23 23 23 24 25 24 25 27
41 40 42 42 38 34 37 43 49 49 40 46 50 48 38 36 30 28 30 31 29 27 31 29 25 23 22 22 16 14 14 13 13 16 17 17 21 22 23 22 23 24 25 25 25 26 25 26 27
52 44 33 43 45 34 40 47 56 51 39 46 53 49 45 37 30 26 30 31 32 32 33 30 26 24 22 20 19 17 15 15 14 15 16 17 20 20 20 21 24 25 27 27 26 28 27 26 28
49 43 35 39 42 51 49 47 50 54 42 42 49 46 44 40 37 31 31 28 29 28 27 27 27 23 23 21 23 21 16 15 15 15 16 17 19 22 21 21 23 26 26 27 27 27 29 29 29
48 48 43 42 45 52 43 53 43 51 50 40 46 45 44 41 38 35 31 31 25 26 30 29 27 26 28 24 24 23 17 17 17 16 17 17 21 24 24 23 24 27 28 30 30 28 29 31 31
46 45 47 46 41 43 51 45 53 47 50 48 42 51 51 49 40 38 37 36 32 32 29 29 30 28 30 28 25 24 21 21 21 17 19 18 20 23 23 24 26 29 31 32 34 32 30 32 31
46 46 47 46 45 49 43 48 51 66 54 49 50 47 50 48 50 41 40 33 37 37 36 32 31 32 32 26 26 21 19 22 22 18 20 20 20 22 26 26 27 30 33 35 36 35 33 34 33
43 47 45 45 44 45 46 43 51 38 55 50 51 51 48 50 51 51 50 45 43 43 38 41 40 33 33 29 30 26 26 25 20 18 22 23 23 23 25 26 29 32 33 36 37 37 35 36 35
40 43 43 42 42 43 46 46 45 42 54 59 47 45 50 50 52 55 57 56 55 52 43 42 44 44 40 37 35 34 32 28 30 23 25 25 26 26 26 26 30 33 34 35 39 40 38 36 36
37 41 42 42 43 44 47 44 42 49 53 57 62 54 49 52 53 52 54 59 58 57 52 48 49 40 44 42 43 44 38 33 31 34 27 31 29 31 28 27 29 34 36 36 40 44 40 38 36
39 41 42 43 44 44 46 46 46 49 53 58 61 73 60 55 57 57 53 56 59 60 57 55 52 50 51 46 41 39 50 40 36 33 30 33 31 34 34 30 29 33 37 38 42 45 41 38 36
41 43 45 45 47 46 45 47 48 49 52 53 60 63 75 77 70 62 61 54 59 60 60 62 60 57 51 47 47 48 46 44 38 30 32 36 35 36 37 38 32 33 37 40 42 43 40 37 35
39 41 44 46 47 48 46 46 49 50 49 52 54 59 62 62 67 73 72 64 59 66 65 64 63 59 51 49 48 44 47 55 54 39 34 36 34 37 39 40 37 36 38 41 43 41 41 36 35
38 40 42 44 46 50 49 46 47 50 49 53 55 56 59 60 60 61 63 69 65 67 67 62 61 62 58 55 50 48 43 47 48 38 36 35 35 39 39 41 40 40 41 42 46 42 39 36 37
38 40 42 45 48 49 53 50 50 50 52 53 56 57 59 61 60 60 62 65 70 71 69 69 71 64 65 61 61 57 52 51 49 43 39 40 41 43 46 42 42 43 43 44 45 43 38 37 38
35 38 40 43 47 47 50 56 53 56 57 58 59 61 61 63 63 62 61 61 63 73 77 73 74 75 72 67 65 60 58 54 47 44 43 44 49 52 52 45 44 46 42 43 44 41 37 38 37
35 36 38 42 45 46 49 55 50 52 58 61 60 66 66 65 64 65 63 62 62 64 69 76 72 75 76 71 67 61 56 53 44 47 47 44 47 53 50 45 43 44 42 42 41 38 37 38 35
30 32 35 39 41 46 46 51 49 51 55 59 65 67 69 70 69 67 65 64 63 65 65 67 66 73 76 73 70 66 59 56 48 36 37 42 45 48 44 43 42 46 42 39 38 36 36 37 29
26 29 37 41 42 44 45 51 48 55 55 62 65 66 68 70 71 70 70 67 65 64 64 65 63 60 73 73 65 59 52 43 35 37 41 39 44 45 42 43 45 42 40 37 35 35 36 34 25
22 26 29 39 41 45 41 51 46 49 52 47 60 67 67 69 71 74 73 70 70 67 64 64 62 62 61 62 63 62 54 39 35 43 44 42 47 51 50 45 44 39 36 34 34 35 36 26 24
22 25 29 33 37 41 40 35 35 30 36 38 44 54 59 63 69 71 74 73 71 71 69 64 62 61 60 60 59 61 55 43 42 42 42 46 46 36 38 44 37 36 31 33 33 34 28 25 22
22 26 30 33 37 36 31 28 23 24 27 32 30 34 40 46 57 66 66 75 74 70 67 66 61 57 57 56 56 59 54 46 42 44 44 43 38 37 40 37 33 30 30 32 33 28 26 24 21
23 28 30 32 33 36 35 25 19 24 29 26 22 27 32 33 36 44 51 61 73 68 68 66 63 58 53 54 53 53 47 45 46 48 45 39 34 35 35 33 31 30 31 32 29 27 25 22 20
19 22 26 30 29 31 30 22 19 20 23 26 25 24 27 35 40 45 41 45 59 60 67 67 66 60 53 52 51 47 45 41 45 48 42 37 33 34 35 31 32 30 30 29 27 26 24 21 21
Wind_Direction
224 223 222 219 220 213 202 196 204 196 185 190 199 210 212 226 237 254 264 258 235 264 261 269 275 316 357 11 354 345 335 330 330 336 339 335 341 346 348 351 359 359 356 351 350 343 343 342 339
223 224 225 222 221 210 202 205 202 203 200 197 201 210 208 226 225 278 275 271 263 255 266 279 279 286 317 345 351 350 339 326 326 334 339 341 344 347 350 349 351 355 352 350 353 346 342 344 341
221 229 227 225 219 207 203 206 206 209 203 201 206 214 220 222 222 244 262 264 264 262 261 280 278 275 296 322 341 343 339 333 326 329 336 340 347 353 353 349 350 353 350 350 347 344 347 342 342
228 217 228 227 220 203 207 210 207 205 203 207 210 216 217 221 243 250 259 262 265 265 266 272 264 271 276 298 329 334 331 338 336 333 345 353 355 359 356 356 355 355 350 346 342 339 345 339 342
237 223 218 224 218 203 208 211 209 199 206 207 213 218 216 222 241 245 249 257 255 258 263 254 267 268 271 283 308 323 327 329 332 338 346 356 359 0 351 349 353 355 353 347 337 338 340 341 341
224 239 230 218 208 208 209 211 209 202 211 215 217 218 222 225 241 243 241 250 251 248 254 250 250 263 268 277 295 315 319 321 322 326 338 342 351 360 354 348 351 353 354 345 339 338 339 339 339
225 234 238 225 207 206 210 211 207 204 213 215 219 217 217 223 234 237 235 249 246 238 239 241 244 254 265 269 277 292 311 321 323 322 334 339 345 351 356 359 355 351 350 343 340 333 335 337 336
230 238 238 227 210 207 208 207 205 204 212 215 220 219 211 226 235 239 243 245 237 232 238 240 239 243 260 268 267 278 292 312 325 319 329 338 341 347 355 1 1 353 344 338 338 334 331 334 332
234 233 240 235 215 198 204 207 207 204 206 214 221 221 226 224 223 224 232 235 233 229 231 235 236 239 247 265 265 269 281 296 310 322 328 336 337 346 353 359 359 351 345 339 336 335 328 330 327
233 234 233 228 221 215 204 206 212 212 203 209 221 225 227 228 222 218 231 238 235 235 235 238 238 241 245 252 263 264 276 289 299 311 325 329 335 339 344 349 351 348 342 337 332 330 331 327 322
232 232 226 228 235 230 229 212 211 209 203 214 218 213 217 216 215 217 220 229 235 244 243 239 248 254 248 244 250 260 269 282 287 296 308 323 331 334 335 335 338 341 341 339 336 325 327 321 317
238 237 233 228 238 246 232 221 209 210 201 214 220 220 221 225 222 219 224 227 230 235 247 256 251 256 240 236 239 257 274 277 276 289 302 308 323 329 330 331 330 330 333 336 335 329 318 317 314
236 238 239 237 234 233 234 236 230 209 202 212 216 227 226 229 232 235 237 234 238 240 251 243 252 252 245 226 241 252 271 266 261 277 293 306 312 319 323 323 328 326 326 329 329 327 317 315 310
238 241 243 245 244 244 243 239 237 225 212 209 215 221 230 231 234 235 240 239 242 248 252 252 248 251 256 252 257 260 252 272 247 291 288 297 307 311 311 320 321 320 323 322 324 323 318 310 309
234 237 240 240 242 241 245 239 231 235 227 217 210 218 227 232 234 235 242 237 244 247 247 247 256 249 254 263 262 268 250 254 245 269 289 295 299 299 301 309 316 317 322 322 323 321 316 308 306
240 241 242 241 241 240 240 232 237 231 232 229 212 212 224 229 232 237 240 246 243 245 244 246 248 249 256 257 260 258 252 242 244 269 290 294 294 292 296 300 306 311 315 318 321 319 314 307 301
245 246 245 244 245 241 240 235 234 239 237 235 223 219 218 223 228 234 239 241 244 246 244 246 246 246 250 254 255 258 255 253 246 258 277 287 290 289 293 293 300 303 308 315 318 317 310 305 298
247 249 251 250 248 246 244 239 237 236 239 236 236 231 225 222 221 221 225 237 243 244 248 247 247 249 250 252 257 255 259 257 260 258 276 283 290 291 294 291 292 297 304 312 313 313 305 302 297
251 252 253 254 255 255 248 245 247 243 240 239 238 240 239 236 235 232 232 223 234 238 243 245 250 252 243 246 247 251 257 257 271 244 269 275 285 292 293 289 290 293 299 307 311 310 304 298 296
249 251 253 256 258 259 257 249 245 247 244 245 243 240 239 240 239 235 237 231 233 240 243 242 242 245 244 247 247 245 251 259 269 272 273 278 281 283 287 289 287 291 295 303 311 306 302 294 295
253 254 255 256 255 258 259 251 251 251 250 245 245 243 242 240 238 238 236 237 230 230 237 239 244 241 244 245 250 252 250 256 263 271 274 277 276 283 284 283 288 290 292 299 308 300 297 292 293
259 260 260 259 261 259 258 257 252 255 252 252 249 247 243 240 239 236 236 237 239 232 229 236 239 244 249 248 252 254 257 262 264 268 270 274 275 277 280 281 285 285 291 296 301 295 291 291 293
265 263 263 266 268 269 267 264 248 251 253 254 250 249 249 244 240 239 235 232 234 235 236 239 243 245 242 244 250 253 258 259 259 263 268 266 270 269 271 273 280 280 288 295 293 289 288 290 291
275 280 280 274 273 266 270 269 260 260 257 252 249 249 248 248 246 241 240 238 232 231 236 237 241 245 246 252 252 253 254 260 264 257 260 263 269 262 263 270 272 276 284 290 288 285 288 288 287
299 305 299 293 291 285 282 276 268 265 260 256 253 248 247 248 247 245 241 240 238 234 233 237 239 240 243 251 260 259 257 256 255 259 261 266 264 258 258 261 266 275 284 285 282 284 287 286 284
299 302 304 305 304 297 288 282 273 261 261 260 254 253 249 246 244 245 243 239 238 237 233 232 235 237 239 245 250 254 255 253 253 260 258 262 261 257 254 260 264 275 278 278 278 283 285 281 286
306 306 304 305 302 296 295 286 267 249 257 267 262 255 254 250 245 240 242 241 238 237 236 232 230 234 238 242 247 250 254 255 250 253 253 256 260 261 252 255 263 267 273 272 276 282 278 277 288
300 305 308 303 296 291 293 276 272 260 257 274 275 277 271 261 252 246 241 239 238 236 237 236 233 230 232 237 244 249 250 247 247 248 248 253 258 256 251 258 261 266 267 270 276 273 269 278 285
300 303 300 299 292 290 291 272 280 268 283 281 291 286 281 272 269 263 251 238 236 232 233 234 234 229 225 231 236 243 246 243 242 242 244 248 248 249 254 256 259 262 263 268 274 263 266 275 284
310 307 296 293 289 281 278 287 284 296 292 283 282 297 291 278 271 273 267 248 230 225 228 230 231 232 223 224 229 234 234 233 233 237 241 242 240 244 247 251 256 257 262 270 260 261 270 274 279
Height
5839 5842 5847 5852 5857 5861 5868 5873 5872 5874 5872 5866 5867 5869 5872 5872 5877 5882 5881 5884 5887 5889 5890 5890 5891 5891 5890 5888 5889 5888 5888 5887 5885 5884 5883 5882 5881 5879 5878 5876 5874 5872 5869 5867 5865 5863 5861 5859 5857
5832 5836 5840 5845 5849 5858 5866 5866 5869 5864 5863 5864 5866 5865 5867 5870 5872 5875 5880 5882 5885 5887 5889 5889 5890 5890 5889 5888 5888 5888 5888 5887 5886 5884 5882 5881 5879 5879 5877 5875 5873 5870 5868 5866 5863 5860 5859 5856 5854
5823 5829 5833 5836 5844 5856 5862 5860 5859 5858 5861 5860 5862 5862 5863 5869 5872 5875 5878 5880 5882 5884 5887 5888 5888 5888 5888 5886 5888 5888 5887 5886 5885 5884 5883 5881 5879 5877 5875 5873 5872 5870 5868 5865 5862 5859 5855 5853 5851
5816 5820 5825 5829 5841 5852 5855 5854 5852 5855 5856 5856 5858 5859 5860 5864 5869 5873 5875 5877 5879 5881 5883 5885 5886 5886 5886 5885 5886 5887 5886 5885 5883 5881 5880 5879 5877 5876 5874 5871 5869 5869 5867 5865 5863 5859 5854 5853 5849
5808 5813 5814 5823 5836 5845 5846 5847 5848 5852 5851 5851 5853 5855 5860 5860 5865 5870 5871 5873 5875 5878 5881 5883 5884 5883 5884 5884 5884 5885 5885 5883 5882 5881 5879 5878 5876 5874 5874 5871 5868 5867 5865 5863 5862 5859 5854 5850 5847
5802 5805 5811 5817 5828 5835 5838 5839 5844 5847 5845 5846 5846 5852 5856 5858 5859 5863 5866 5868 5871 5874 5877 5879 5881 5880 5880 5882 5883 5884 5884 5883 5882 5880 5878 5877 5876 5874 5873 5870 5867 5865 5863 5862 5859 5856 5852 5847 5844
5795 5799 5804 5812 5821 5825 5830 5832 5838 5840 5842 5843 5842 5846 5849 5853 5855 5858 5861 5863 5867 5871 5873 5875 5877 5878 5877 5880 5881 5882 5883 5882 5881 5880 5878 5876 5875 5874 5872 5869 5866 5863 5861 5860 5857 5855 5850 5846 5842
5788 5792 5797 5803 5812 5820 5820 5824 5829 5835 5838 5838 5836 5840 5841 5848 5851 5854 5857 5859 5863 5866 5869 5870 5873 5874 5875 5876 5879 5880 5881 5881 5880 5879 5877 5874 5874 5872 5870 5867 5864 5863 5861 5859 5856 5853 5849 5844 5840
5781 5785 5789 5797 5803 5809 5809 5815 5819 5826 5833 5834 5833 5833 5839 5841 5845 5849 5852 5854 5856 5860 5863 5866 5868 5871 5872 5873 5876 5877 5878 5879 5879 5878 5876 5873 5872 5869 5867 5866 5863 5861 5859 5857 5854 5851 5846 5842 5838
5772 5776 5784 5792 5794 5793 5801 5809 5813 5821 5827 5829 5831 5833 5833 5837 5840 5844 5847 5850 5851 5855 5859 5861 5863 5865 5868 5870 5871 5873 5876 5877 5877 5876 5874 5872 5869 5868 5866 5864 5862 5860 5858 5854 5851 5848 5843 5840 5836
5766 5771 5777 5782 5784 5786 5794 5801 5803 5810 5820 5822 5824 5826 5827 5831 5833 5837 5841 5844 5847 5850 5853 5856 5858 5860 5863 5865 5867 5868 5872 5874 5874 5873 5872 5870 5868 5866 5864 5862 5860 5857 5856 5851 5848 5845 5840 5837 5833
5758 5763 5767 5772 5774 5778 5784 5790 5795 5801 5817 5814 5817 5818 5821 5823 5825 5831 5835 5839 5842 5845 5848 5850 5852 5855 5856 5859 5862 5864 5867 5869 5871 5870 5870 5867 5864 5863 5862 5860 5858 5855 5852 5848 5844 5841 5836 5834 5830
5751 5755 5757 5763 5766 5770 5774 5779 5783 5793 5807 5803 5809 5810 5814 5816 5820 5824 5828 5832 5835 5839 5842 5845 5847 5850 5851 5852 5858 5859 5862 5864 5866 5866 5865 5864 5861 5860 5858 5857 5854 5851 5849 5845 5841 5837 5832 5829 5825
5744 5748 5751 5755 5759 5761 5766 5772 5775 5790 5794 5793 5798 5805 5808 5811 5813 5817 5822 5823 5826 5831 5835 5837 5842 5843 5845 5850 5852 5854 5856 5859 5861 5860 5860 5860 5858 5856 5856 5853 5851 5847 5844 5841 5837 5833 5829 5824 5820
5735 5737 5740 5745 5749 5752 5754 5760 5767 5778 5778 5783 5789 5794 5799 5803 5805 5809 5810 5816 5818 5823 5827 5830 5834 5837 5839 5842 5846 5849 5850 5852 5855 5855 5856 5855 5854 5853 5852 5850 5848 5843 5840 5837 5833 5828 5824 5820 5816
5729 5729 5732 5736 5738 5744 5746 5758 5760 5761 5764 5770 5775 5780 5785 5791 5795 5796 5800 5801 5808 5813 5819 5823 5826 5829 5833 5835 5839 5842 5844 5844 5847 5849 5850 5850 5849 5848 5847 5845 5843 5838 5835 5833 5828 5823 5819 5815 5811
5721 5722 5725 5729 5730 5736 5740 5746 5750 5750 5753 5757 5763 5770 5773 5780 5786 5790 5789 5790 5794 5799 5806 5812 5815 5820 5824 5826 5829 5833 5834 5835 5840 5842 5844 5844 5844 5843 5842 5841 5838 5833 5830 5827 5822 5818 5814 5810 5807
5714 5715 5717 5720 5723 5726 5733 5737 5740 5742 5743 5748 5751 5754 5762 5767 5773 5776 5779 5782 5783 5785 5793 5799 5804 5809 5814 5818 5821 5824 5826 5828 5830 5833 5836 5837 5837 5836 5836 5835 5832 5828 5824 5821 5817 5813 5808 5805 5802
5708 5709 5709 5711 5713 5716 5722 5728 5730 5732 5735 5737 5741 5745 5748 5756 5759 5761 5766 5768 5773 5776 5776 5783 5790 5796 5803 5805 5809 5814 5818 5820 5820 5821 5828 5830 5830 5828 5829 5828 5826 5821 5817 5815 5810 5806 5802 5799 5796
5698 5699 5701 5701 5702 5702 5705 5713 5718 5718 5723 5726 5730 5734 5736 5741 5744 5750 5753 5758 5762 5765 5768 5772 5776 5783 5790 5794 5798 5803 5806 5807 5813 5814 5818 5822 5820 5819 5822 5820 5819 5815 5809 5807 5802 5799 5796 5794 5791
5690 5690 5691 5691 5691 5693 5692 5700 5705 5707 5709 5713 5714 5718 5721 5725 5731 5737 5741 5745 5750 5754 5759 5763 5767 5771 5777 5784 5787 5792 5796 5800 5803 5808 5811 5811 5809 5811 5812 5811 5809 5805 5801 5799 5795 5793 5791 5788 5785
5681 5680 5680 5681 5679 5682 5684 5682 5692 5695 5695 5696 5697 5700 5704 5710 5715 5722 5728 5734 5738 5744 5747 5752 5756 5761 5763 5768 5773 5779 5785 5790 5796 5800 5801 5801 5803 5803 5802 5801 5800 5796 5794 5792 5788 5786 5785 5783 5779
5670 5670 5670 5669 5667 5669 5670 5665 5687 5683 5681 5679 5683 5680 5684 5692 5698 5704 5712 5719 5725 5730 5737 5743 5748 5751 5755 5757 5763 5771 5775 5781 5786 5789 5792 5792 5792 5791 5792 5793 5791 5788 5786 5785 5782 5780 5778 5776 5772
5660 5658 5656 5656 5655 5658 5652 5649 5673 5668 5666 5662 5661 5665 5668 5673 5681 5689 5695 5703 5711 5717 5721 5727 5733 5739 5744 5749 5755 5760 5767 5773 5776 5779 5780 5780 5779 5780 5782 5783 5782 5780 5779 5777 5775 5774 5773 5770 5766
5651 5648 5645 5644 5643 5644 5640 5634 5658 5649 5642 5641 5642 5648 5652 5656 5663 5671 5678 5685 5694 5701 5708 5713 5719 5727 5734 5738 5742 5750 5758 5765 5768 5769 5768 5769 5770 5771 5772 5774 5772 5772 5772 5770 5769 5767 5765 5763 5761
5645 5642 5638 5631 5629 5627 5629 5623 5633 5632 5623 5623 5624 5625 5634 5640 5646 5651 5658 5668 5676 5683 5693 5700 5708 5716 5723 5728 5733 5739 5745 5753 5756 5756 5758 5758 5761 5761 5765 5765 5762 5763 5763 5763 5762 5761 5758 5758 5755
5637 5633 5630 5624 5622 5615 5616 5614 5612 5617 5614 5610 5610 5611 5613 5616 5624 5635 5642 5648 5657 5665 5676 5687 5697 5705 5711 5717 5722 5727 5733 5742 5745 5746 5748 5749 5752 5755 5755 5754 5755 5755 5756 5756 5755 5754 5753 5752 5748
5629 5626 5623 5617 5612 5609 5610 5604 5605 5607 5606 5604 5604 5603 5601 5602 5607 5617 5625 5630 5636 5649 5661 5671 5684 5694 5701 5706 5711 5716 5724 5730 5735 5737 5739 5742 5744 5745 5745 5747 5748 5748 5750 5750 5748 5748 5747 5745 5743
5623 5620 5617 5614 5608 5602 5599 5599 5600 5600 5599 5598 5598 5595 5594 5595 5596 5597 5601 5607 5616 5637 5647 5656 5666 5678 5688 5695 5702 5708 5715 5720 5724 5726 5730 5734 5736 5736 5737 5739 5741 5742 5743 5742 5742 5742 5741 5738 5737
5618 5614 5611 5607 5604 5597 5594 5591 5594 5592 5591 5590 5591 5588 5586 5586 5585 5584 5588 5591 5604 5622 5631 5642 5652 5663 5675 5682 5689 5696 5703 5708 5711 5716 5721 5724 5726 5727 5730 5733 5734 5736 5736 5735 5735 5735 5734 5732 5732